Regional Weather Roundup
Issued by NWS

Home | Current Version | Previous Version | Graphics & Text | Print | Product List | Glossary On
Versions: 1 2 3 4 5 6 7 8 9 10 11 12 13 14 15 16 17 18 19 20 21 22 23 24 25 26 27 28 29 30 31 32 33 34 35 36 37 38 39 40 41 42 43 44 45 46 47 48 49 50
000
ASUS43 KDMX 280503
RWRIA

WEATHER ROUNDUP FOR IOWA
NATIONAL WEATHER SERVICE DES MOINES IA
1200 AM CDT SUN AUG 28 2016

NOTE: "FAIR" INDICATES FEW OR NO CLOUDS BELOW 12,000 FEET WITH NO
SIGNIFICANT WEATHER AND/OR OBSTRUCTIONS TO VISIBILITY.

* - THESE STATIONS ARE NOT NWS STATIONS...THUS NOT UNDER NWS
QUALITY CONTROL.  THEY ALSO DO NOT REPORT WEATHER SUCH
AS PRECIPITATION OR FOG.

IAZ001>003-012>014-020>022-031>034-043>046-280600-
   NORTHWEST IOWA

CITY           SKY/WX    TMP DP  RH WIND       PRES   REMARKS
CARROLL *      PTCLDY    64  64 100 SE5       30.08R FOG
CHEROKEE *     CLEAR     63  63 100 CALM      30.08R
DENISON *      CLEAR     66  64  94 SE5       30.06R FOG
LE MARS *      CLEAR     66  63  88 CALM      30.07R
ORANGE CITY *  CLEAR     64  63  94 E5        30.08R
SHELDON *      PTCLDY    61  61 100 E7        30.06S FOG
SIOUX CITY     CLOUDY    66  63  90 SE7       30.05R
SPENCER        CLEAR     60  58  92 E3        30.09R
STORM LAKE *   CLEAR     66  64  94 S8        30.09R
$$

IAZ055>058-069>071-079>083-090>094-280600-
   SOUTHWEST IOWA

CITY           SKY/WX    TMP DP  RH WIND       PRES   REMARKS
ATLANTIC *     CLEAR     63  63 100 N6        30.08S
AUDUBON *      CLEAR     61  57  88 CALM      30.10R
CLARINDA *       N/A     66  66 100 MISG      30.09R
COUNCIL BLFS * CLEAR     70  66  88 SE6       30.07S
CRESTON *      CLEAR     68  66  94 SE3       30.11R
HARLAN  *      CLEAR     61  61 100 CALM      30.11S FOG
LAMONI         CLEAR     68  68 100 NE5       30.09R
RED OAK *      CLEAR     66  64  94 CALM      30.08R
SHENANDOAH *   CLOUDY    68 -40   1 NE5       30.07S
$$

IAZ047>049-059>061-072>074-084-280600-
   CENTRAL IOWA

CITY           SKY/WX    TMP DP  RH WIND       PRES   REMARKS
AMES           FOG       62  62 100 CALM      30.09R VSB 1/4
ANKENY *         N/A    N/A N/A N/A MISG        N/A
BOONE *        CLEAR     66  66 100 SE5       30.09R
CHARITON *       N/A     70  68  94 MISG      30.09R
DES MOINES     PTCLDY    72  69  90 CALM      30.08R
GRINNELL*      CLEAR     67  65  95 E5        30.10R
KNOXVILLE *    CLOUDY    70  68  94 CALM      30.07S
MARSHALLTOWN   CLEAR     64  64 100 CALM      30.09R
NEWTON *       CLEAR     68  68 100 E6        30.08S
PELLA *        CLOUDY    70  68  93 CALM      30.09S
PERRY *          N/A     66  66 100 E3        30.09R FOG
$$

IAZ004>006-015-016-023>025-035-036-280600-
   NORTH CENTRAL IOWA

CITY           SKY/WX    TMP DP  RH WIND       PRES   REMARKS
ALGONA *       CLEAR     66  64  94 S3        30.09S
ESTHERVILLE    PTCLDY    58  58 100 E3        30.09R FOG
FORT DODGE *   CLEAR     66  63  88 CALM      30.10R
MASON CITY     FOG       61  61 100 CALM      30.11S VSB 1/2
FOREST CITY *    N/A    N/A N/A N/A MISG        N/A
WEBSTER CITY * CLEAR     63  63 100 CALM      30.08R FOG
IOWA FALLS *     N/A     64  62  94 CALM      30.11R
$$

IAZ007>011-017>019-026>030-037>042-050>054-066-280600-
   NORTHEAST IOWA

CITY           SKY/WX    TMP DP  RH WIND       PRES   REMARKS
CEDAR RAPIDS   PTCLDY    70  69  97 NE5       30.09R
CHARLES CITY * CLEAR     64  64 100 SE5       30.11R FOG
CLINTON *      CLOUDY    72  70  93 SE6       30.10R
DECORAH *      FOG       63  63 100 CALM      30.10S VSB 1/4
DUBUQUE        PTCLDY    66  65  96 NE5       30.12R FOG
MONTICELLO *   FOG       64  64 100 CALM      30.10R VSB 3/4
OELWEIN *      PTCLDY    63  63 100 SE3       30.12R FOG
WATERLOO       MOCLDY    62  61  96 CALM      30.09R FOG
$$

IAZ064-065-067-068-078-280600-
   EAST CENTRAL IOWA

CITY           SKY/WX    TMP DP  RH WIND       PRES   REMARKS
DAVENPORT      PTCLDY    70  68  93 E5        30.10S
IOWA CITY      PTCLDY    70  68  93 CALM      30.10R
MT. PLEASANT * PTCLDY    72  72 100 SE3       30.09R FOG
MUSCATINE *    CLEAR     70  68  94 CALM      30.09R
QUAD CITIES    MOCLDY    73  70  90 NE5       30.09R
$$

IAZ062-063-075>077-085>089-095>099-280600-
   SOUTHEAST IOWA

CITY           SKY/WX    TMP DP  RH WIND       PRES   REMARKS
BURLINGTON     CLEAR     73  73 100 CALM      30.08R
FAIRFIELD *    PTCLDY    70  68  94 CALM      30.09R
FORT MADISON * CLEAR     72  72 100 CALM      30.10R FOG
KEOKUK *       CLEAR     75  72  88 CALM      30.08R
OSKALOOSA *      N/A     67  66  96 E5        30.09R
CENTERVILLE *    N/A     68  68 100 CALM      30.11R
OTTUMWA        PTCLDY    68  66  93 E5        30.08R
WASHINGTON *   PTCLDY    70  68  94 NE5       30.10R
$$

ABBREVIATIONS USED IN REMARKS
   TC - TEMPERATURES IN CELSIUS
  WCI - WIND CHILL INDEX
   HX - HEAT INDEX
  VSB - VISIBILITY
$$





USA.gov is the U.S. government's official web portal to all federal, state and local government web resources and services.